SCP
-0 0 0 0 0 0 0 0 0 0 0 0 0 0 0 1 1 1 1 1 1 1
0 0 0 0 0 0 0 0 0 0 0 0 0 0 0 0 0 1 1 1 1 1
-0 -0 0 0 0 0 0 0 0 0 0 0 0 0 0 1 1 0 1 1 0 0
0 0 0 0 0 0 0 0 0 0 0 0 0 0 0 0 1 0 0 0 0 0
0 0 0 0 0 0 0 0 0 0 0 0 0 0 0 0 0 0 0 0 0 0
0 0 0 0 0 0 0 0 0 0 0 0 0 0 0 0 0 0 0 0 0 0
0 0 0 0 0 0 0 0 0 0 0 0 0 0 0 0 0 0 0 0 0 0
0 0 0 0 0 0 0 0 0 0 0 0 0 0 0 0 0 0 0 0 0 0
0 0 0 0 0 0 0 0 0 0 0 0 0 0 0 0 0 0 0 0 0 0
0 0 0 0 0 0 0 0 0 0 0 -0 0 0 0 0 0 0 0 0 0 0
0 0 0 0 0 0 0 0 0 0 0 0 0 0 0 0 0 0 0 0 0 0
0 0 0 0 0 0 0 0 0 0 0 0 0 0 0 0 0 0 0 0 0 0
0 0 0 0 0 0 0 0 0 0 0 0 0 0 0 0 0 0 0 0 0 0
0 0 0 0 0 0 0 0 0 0 0 0 0 0 0 0 0 0 0 0 0 0
Wind_Speed_500mb
64 61 61 60 62 56 52 47 47 47 50 49 49 48 51 54 55 50 50 55 55 61
75 70 73 73 72 70 52 51 48 47 50 51 49 51 47 41 42 47 50 54 55 61
79 79 77 73 68 73 60 49 48 45 44 53 54 49 45 39 42 45 47 47 52 51
74 72 69 64 61 64 57 49 53 53 47 52 56 54 43 35 36 46 46 44 47 45
77 78 75 65 55 56 50 42 47 54 50 48 50 54 45 36 33 39 40 41 38 38
76 73 70 59 49 46 39 38 35 35 32 43 45 47 39 27 33 36 40 33 25 21
76 68 55 48 41 41 31 34 29 25 30 36 41 38 29 23 29 30 25 15 11 11
60 52 43 40 36 35 28 26 18 20 31 37 36 27 23 24 23 16 8 5 0 7
56 47 41 37 34 32 22 10 4 18 32 34 30 18 14 19 21 16 6 8 8 12
49 45 35 38 37 26 17 7 8 26 29 25 16 10 20 23 25 17 16 17 19 28
46 42 39 44 28 16 13 11 19 23 19 20 2 10 22 24 25 28 31 34 38 39
48 55 44 30 15 10 10 17 16 12 8 5 17 22 26 28 27 37 46 50 49 51
26 23 28 20 6 12 20 15 9 8 12 21 34 34 31 28 34 53 59 59 62 63
35 32 26 14 15 17 21 19 14 17 31 32 34 32 34 37 40 50 61 63 63 58
Wind_Direction_500mb
311 301 292 291 291 291 287 291 300 301 304 298 291 283 285 284 282 283 281 282 280 276
309 307 301 294 285 288 287 285 289 293 300 298 296 289 280 280 277 278 280 275 270 266
304 306 302 296 290 285 283 282 282 284 294 299 292 294 285 279 274 270 273 275 270 267
299 302 308 298 289 289 283 273 276 279 284 296 296 285 290 274 272 270 276 286 282 272
297 299 299 299 294 291 289 267 273 276 280 291 296 283 290 269 281 280 274 275 276 268
296 299 298 293 295 292 283 266 272 279 289 290 292 287 289 273 276 272 268 267 273 271
299 298 294 288 292 298 271 273 271 279 293 293 301 283 286 258 266 264 262 267 286 294
299 301 294 287 288 295 274 284 271 298 291 290 295 280 274 244 246 239 219 288 316 67
300 299 297 293 284 295 279 284 295 286 288 294 287 267 237 234 202 179 153 121 80 78
296 288 297 292 284 291 275 256 261 271 281 297 292 220 192 174 163 153 126 98 112 112
282 277 284 283 280 270 273 233 257 269 288 300 116 166 173 168 143 120 110 110 111 114
275 277 280 276 272 263 232 219 241 249 296 263 142 156 150 144 126 123 115 112 115 118
262 251 253 232 260 267 203 210 203 173 157 147 138 147 145 144 142 129 124 119 113 107
248 242 227 196 244 228 205 177 151 136 129 125 133 143 152 149 143 140 133 128 120 112
Wind_Speed_850mb
64 61 61 60 62 56 52 47 47 47 50 49 49 48 51 54 55 50 50 55 55 61
75 70 73 73 72 70 52 51 48 47 50 51 49 51 47 41 42 47 50 54 55 61
79 79 77 73 68 73 60 49 48 45 44 53 54 49 45 39 42 45 47 47 52 51
74 72 69 64 61 64 57 49 53 53 47 52 56 54 43 35 36 46 46 44 47 45
77 78 75 65 55 56 50 42 47 54 50 48 50 54 45 36 33 39 40 41 38 38
76 73 70 59 49 46 39 38 35 35 32 43 45 47 39 27 33 36 40 33 25 21
76 68 55 48 41 41 31 34 29 25 30 36 41 38 29 23 29 30 25 15 11 11
60 52 43 40 36 35 28 26 18 20 31 37 36 27 23 24 23 16 8 5 0 7
56 47 41 37 34 32 22 10 4 18 32 34 30 18 14 19 21 16 6 8 8 12
49 45 35 38 37 26 17 7 8 26 29 25 16 10 20 23 25 17 16 17 19 28
46 42 39 44 28 16 13 11 19 23 19 20 2 10 22 24 25 28 31 34 38 39
48 55 44 30 15 10 10 17 16 12 8 5 17 22 26 28 27 37 46 50 49 51
26 23 28 20 6 12 20 15 9 8 12 21 34 34 31 28 34 53 59 59 62 63
35 32 26 14 15 17 21 19 14 17 31 32 34 32 34 37 40 50 61 63 63 58
Wind_Direction_850mb
311 301 292 291 291 291 287 291 300 301 304 298 291 283 285 284 282 283 281 282 280 276
309 307 301 294 285 288 287 285 289 293 300 298 296 289 280 280 277 278 280 275 270 266
304 306 302 296 290 285 283 282 282 284 294 299 292 294 285 279 274 270 273 275 270 267
299 302 308 298 289 289 283 273 276 279 284 296 296 285 290 274 272 270 276 286 282 272
297 299 299 299 294 291 289 267 273 276 280 291 296 283 290 269 281 280 274 275 276 268
296 299 298 293 295 292 283 266 272 279 289 290 292 287 289 273 276 272 268 267 273 271
299 298 294 288 292 298 271 273 271 279 293 293 301 283 286 258 266 264 262 267 286 294
299 301 294 287 288 295 274 284 271 298 291 290 295 280 274 244 246 239 219 288 316 67
300 299 297 293 284 295 279 284 295 286 288 294 287 267 237 234 202 179 153 121 80 78
296 288 297 292 284 291 275 256 261 271 281 297 292 220 192 174 163 153 126 98 112 112
282 277 284 283 280 270 273 233 257 269 288 300 116 166 173 168 143 120 110 110 111 114
275 277 280 276 272 263 232 219 241 249 296 263 142 156 150 144 126 123 115 112 115 118
262 251 253 232 260 267 203 210 203 173 157 147 138 147 145 144 142 129 124 119 113 107
248 242 227 196 244 228 205 177 151 136 129 125 133 143 152 149 143 140 133 128 120 112